Regional Weather Roundup
Issued by NWS Grand Forks, ND

Home | Current Version | Previous Version | Graphics & Text | Print | Product List | Glossary On
Versions: 1 2 3 4 5 6 7 8 9 10 11 12 13 14 15 16 17 18 19 20 21 22 23 24 25 26 27 28 29 30 31 32 33 34 35 36 37 38 39 40 41 42 43 44 45 46 47 48 49 50
000
ASUS43 KFGF 271910
RWRFGF
PRAIRIE TO PINES  WEATHER ROUNDUP
NATIONAL WEATHER SERVICE EASTERN NORTH DAKOTA/GRAND FORKS ND
200 PM CDT SAT AUG 27 2016

 **SATELLITE DATA USED TO AUGMENT SKY COVER AT AUTOMATED STATIONS**
 *****  WEATHER ACROSS EASTERN NORTH DAKOTA  *****

CITY           SKY/WX    TMP DP  RH WIND       PRES   REMARKS
GRAND FORKS    CLOUDY    66  60  81 SE17      29.92S
GRAND FRKS AFB PTSUNNY   70  61  73 S13       29.91S
GRAND FRKS NWS   N/A     64 N/A N/A SE12        N/A
DEVILS LAKE    SUNNY     71  52  50 SW5       29.91
FARGO          CLOUDY    63  59  87 S8        29.93R
WAHPETON ARPT  MOCLDY    73  55  53 S18G25    29.94F
$$

 ***** WEATHER ACROSS CENTRAL AND WESTERN NORTH DAKOTA  *****

CITY           SKY/WX    TMP DP  RH WIND       PRES   REMARKS
BISMARCK       SUNNY     76  51  41 SW7       29.92S
MINOT          MOSUNNY   75  48  38 N6        29.88F
JAMESTOWN      MOSUNNY   75  60  59 S13       29.90F
MINOT AFB      SUNNY     74  45  36 VRB2      29.87F
GARRISON         N/A     74  47  38 SW8       29.90F
WILLISTON      SUNNY     77  43  29 SE8       29.86F
DICKINSON      SUNNY     73  40  30 W5        29.89F
HETTINGER      SUNNY     76  50  40 S6        29.93F
$$

 *****  OTHER AIRPORT OBSERVATIONS IN OUR AREA  *****

CITY           SKY/WX    TMP DP  RH WIND       PRES   REMARKS
WALHALLA       NOT AVBL
GRAFTON AIRPOR CLOUDY    66  61  82 SE17      29.92S
VALLEY CITY AR FAIR      73  63  68 SW13G18   29.93S
CANDO          NOT AVBL
CAVALIER APRT  FAIR      72  57  60 S9G17     29.88F
GWINNER        FAIR      73  63  68 SW16      29.94S
SHEYENNE NWR     N/A     74  64  69 W10       29.95S
ROLLA            N/A     68  50  52 W9        29.91S
 ***** THE ABOVE OBSERVATIONS ARE NON NWS ARE NOT QUALITY
       CONTROLLED AND MAY MIS-REPORT RAIN FOR SNOW...
$$

  *****  WEATHER ACROSS NORTHERN MINNESOTA  *****

CITY           SKY/WX    TMP DP  RH WIND       PRES   REMARKS
FLAG ISLAND    DRIZZLE   61  57  88 S7        29.94F
WARROAD        DRIZZLE   59  55  88 S5        29.97R
ROSEAU         CLOUDY    61  55  82 S10       29.95F
HALLOCK        PTSUNNY   66  57  72 S16       29.92S
THF RVR FALLS  LGT RAIN  58  55  90 S9        29.95F
BAUDETTE       RAIN      58  56  93 S7        29.98F FOG
WASKISH        CLOUDY    61  55  82 NW7       30.01R
CROOKSTON      CLOUDY    59  57  94 S12       29.95S
GREENBUSH NDAW   N/A     61  57  88 S9          N/A
$$
  *****  WEATHER ACROSS CENTRAL AND WEST MINNESOTA  *****

CITY           SKY/WX    TMP DP  RH WIND       PRES   REMARKS
FOSSTON        HVY RAIN  55  54  94 E5        30.00F
BEMIDJI        CLOUDY    65  58  78 SE6       30.00S
PARK RAPIDS    CLOUDY    69  55  60 SW8       29.99F
ELBOW LAKE     CLOUDY    70  59  69 S12       29.98S
WADENA         PTSUNNY   70  55  60 S8        29.99R
DETROIT LAKES  MOSUNNY   72  55  56 S15G21    29.97S
MOORHEAD       LGT RAIN  64  63  94 W6        29.95R
FERGUS FALLS   SUNNY     72  57  60 S18G24    29.97F
MORRIS MN      PTSUNNY   72  57  60 S13       29.97F
STAPLES        PTSUNNY   70  54  56 S10G16    29.99S
$$
  *****  WEATHER ELSEWHERE ACROSS MINNESOTA  *****

CITY           SKY/WX    TMP DP  RH WIND       PRES   REMARKS
DULUTH         CLOUDY    63  58  83 SE3       30.05R
INTRNTL FALLS  LGT RAIN  66  56  70 S8        30.01R
ELY            CLOUDY    66  52  59 S6        30.05R
CLOQUET        CLOUDY    63  57  82 CALM      30.05S
WHEATON        MOSUNNY   73  63  68 SE13      29.97F
BRAINERD       CLOUDY    68  57  68 SE9       30.00F
HIBBING        CLOUDY    65  53  65 VRB5      30.04S
ALEXANDRIA     CLOUDY    69  56  62 S13       30.00F
SAINT CLOUD    CLOUDY    65  59  81 SE8       30.01S
MINNEAPOLIS    CLOUDY    66  60  81 SE9       30.01F
$$

  *****  WEATHER ACROSS SOUTH DAKOTA  *****

CITY           SKY/WX    TMP DP  RH WIND       PRES   REMARKS
SIOUX FALLS    PTSUNNY   71  62  73 SW8       30.00S
BROOKINGS      CLOUDY    67  60  78 S8        29.99S
WATERTOWN      SUNNY     72  58  61 S9        29.98S
HURON          MOSUNNY   75  62  64 S10       29.95F
SISSETON         N/A     74  60  61 S15G21    29.93F
ABERDEEN       PTSUNNY   74  61  63 S12G21    29.94F
MITCHELL       SUNNY     77  62  59 S9        29.96F
PIERRE         SUNNY     77  53  43 CALM      29.93S
MOBRIDGE       SUNNY     78  54  43 SW8       29.90F
RAPID CITY     SUNNY     76  55  48 S15       29.94F
$$

  *****  SOME WEATHER IN NEARBY STATES *****

CITY           SKY/WX    TMP DP  RH WIND       PRES   REMARKS
GLASGOW MT     SUNNY     76  46  34 SE14G23   29.77F
GREAT FALLS MT SUNNY     78  34  20 SW22G28   29.79S
CHEYENNE WY    PTSUNNY   75  32  20 W10G21    30.13F
SCOTTSBLUFF NE SUNNY     81  48  31 CALM      30.03F
OMAHA NE       MOSUNNY   80  63  55 S6        30.01S
DES MOINES IA  CLOUDY    76  68  76 W5        30.03R
DAVENPORT IA   MOSUNNY   81  70  69 W8        30.03R
CHICAGO IL     PTSUNNY   80  70  71 SW12      30.02F
EAU CLAIRE WI  CLOUDY    67  60  78 SE7       30.02F
LA CROSSE WI   CLOUDY    70  64  81 VRB6      30.01F
$$

  *****  SOME NATIONAL WEATHER *****

CITY           SKY/WX    TMP DP  RH WIND       PRES   REMARKS
LA GUARDIA NY  MOSUNNY   88  58  36 NE10      30.17S
RALEIGH NC     PTSUNNY   93  70  46 SE13      30.09F THUNDER HX  99
ATLANTA GA     MOSUNNY   91  68  46 SE13      30.09F HX  95
NEW ORLEANS LA CLOUDY    89  77  67 E12       29.95F HX 101
OKLAHOMA CITY  LGT RAIN  84  70  62 W12       30.03S
ALBUQUERQUE NM MOSUNNY   79  46  31 VRB3      30.17F
SALT LAKE CITY MOSUNNY   83  33  16 VRB6      30.05F
LOS ANGELES CA PTSUNNY   71  56  58 SW9       30.01F
BOISE ID       MOSUNNY   84  31  14 CALM      29.95S
SEATTLE WA     CLOUDY    64  55  72 SW8       29.89R
$$

*** WEATHER ACROSS MANITOBA...SASKATCHEWAN AND ONTARIO ***
                ***ONTARIO***

CITY           SKY/WX    TMP DP  RH WIND       PRES   REMARKS
GERALDTON      NOT AVBL
THUNDER BAY    PTSUNNY   72  52  49 S12       30.07S
SIOUX LOOKOUT  CLOUDY    66  57  72 E3        30.00F
TORONTO        PTSUNNY   79  59  50 SE7       30.17F
BIG TROUT LK   PTSUNNY   70  55  60 S5        29.94S
PICKLE LAKE    PTSUNNY   72  52  49 S14       30.00S
DRYDEN         CLOUDY    68  54  60 S10       29.99F
KENORA         LGT RAIN  59  57  94 S8        29.98S
$$
                *** MANITOBA***

CITY           SKY/WX    TMP DP  RH WIND       PRES   REMARKS
BRANDON        MOSUNNY   68  52  56 W8        29.87S
DAUPHIN        MOSUNNY   70  59  68 W9        29.83S
ISLAND LAKE    MOSUNNY   70  59  68 SE8       29.86S
PILOT MOUND    NOT AVBL
THE PAS        PTSUNNY   61  55  82 VRB2      29.82R
THOMPSON       PTSUNNY   68  55  64 VRB7      29.83S
WINNIPEG       PTSUNNY   70  59  68 S15G23    29.88S
LYNN LAKE      SUNNY     68  45  42 MISG      29.80F
CHURCHILL      PTSUNNY   66  48  52 S13G28    29.85S
GILLAM         PTSUNNY   63  55  77 NE7       29.86F
$$
                ***SASKATCHEWAN***

CITY           SKY/WX    TMP DP  RH WIND       PRES   REMARKS
ESTEVAN        MOSUNNY   75  46  35 S7        29.85F
KINDERSLEY     PTSUNNY   75  52  43 S16G24    29.61F
LLOYDMINSTER   PTSUNNY   68  52  56 S22       29.58F
PRINCE ALBERT  PTSUNNY   66  57  72 E12G18    29.74F
REGINA         MOSUNNY   75  45  33 S14G21    29.79F
YORKTON        MOSUNNY   68  54  60 VRB3      29.83F
N. BATTLEFORD  CLOUDY    68  50  52 SE21G32   29.64F
LA RONGE       PTSUNNY   63  50  63 E8G17     29.75F
SASKATOON      PTSUNNY   73  48  40 S18G31    29.71F
SWIFT CURRENT  CLOUDY    73  45  35 S26G37    29.69F
$$
NOTE: THESE ARE AUTOMATED STATIONS WITH LIMITED QUALITY CONTROL
      "FAIR" INDICATES FEW OR NO CLOUDS BELOW 12,000 FEET WITH NO
      SIGNIFICANT WEATHER AND/OR OBSTRUCTIONS TO VISIBILITY.
      SKY/WX - SKY CONDITION AND SIGNIFICANT WEATHER.
      TMP - AIR TEMPERATURE.    DP   - DEWPOINT TEMPERATURE.
      RH  - RELATIVE HUMIDITY.  PRES - PRESSURE.
      HX  - HEAT INDEX.         WCI  - WIND CHILL INDEX.
$



USA.gov is the U.S. government's official web portal to all federal, state and local government web resources and services.